Probability
0 0 0 0 0 0 0 0 0 0 0 0 0 0 0 0 0 0 0 0 0 0 0 0 0 0 0 0 0 0 0 0 0 0 0 0 0 0 0 0 0 0 0
0 0 0 0 0 0 0 0 0 0 0 0 0 0 0 0 0 0 0 0 0 0 0 0 0 0 0 0 0 0 0 0 0 0 0 0 0 0 0 0 0 0 0
0 0 0 0 0 0 0 0 0 0 0 0 0 0 0 0 0 0 0 0 0 0 0 0 0 0 0 0 0 0 0 0 0 0 0 0 0 0 0 0 0 0 0
0 0 0 0 0 0 0 0 0 0 0 0 0 0 0 0 0 0 0 0 0 0 0 0 0 0 0 0 0 0 0 0 0 0 0 0 0 0 0 0 0 0 0
0 0 0 0 0 0 0 0 0 0 0 0 0 0 0 0 0 0 0 0 0 0 0 0 0 0 0 0 0 0 0 0 0 0 0 0 0 0 0 0 0 0 0
0 0 0 0 0 0 0 0 0 0 0 0 0 0 0 0 0 0 0 0 0 0 0 0 0 0 0 0 0 0 0 0 0 0 0 0 0 0 0 0 0 0 0
0 0 0 0 0 0 0 0 0 0 0 0 0 0 0 0 0 0 0 0 0 0 0 0 0 0 0 0 0 0 0 0 0 0 0 0 0 0 0 0 0 0 0
0 0 0 0 0 0 0 0 0 0 0 0 0 0 0 0 0 0 0 0 0 0 0 0 0 0 0 0 0 0 0 0 0 0 0 0 0 0 0 0 0 0 0
0 0 0 0 0 0 0 0 0 0 0 0 0 0 0 0 0 0 0 0 0 0 0 0 0 0 0 0 0 0 0 0 0 0 0 0 0 0 0 0 0 0 0
0 0 0 0 0 0 0 0 0 0 0 0 0 0 0 0 0 0 0 0 0 0 0 0 0 0 0 0 0 0 0 0 0 0 0 0 0 0 0 0 0 0 0
0 0 0 0 0 0 0 0 0 0 0 0 0 0 0 0 0 0 0 0 0 0 0 0 0 0 0 0 0 0 0 0 0 0 0 0 0 0 0 0 0 0 0
0 0 0 0 0 0 0 0 0 0 0 0 0 0 0 0 0 0 0 0 0 0 0 0 0 0 0 0 0 0 0 0 0 0 0 0 0 0 0 0 0 0 0
0 0 0 0 0 0 0 0 0 0 0 0 0 0 0 0 0 0 0 0 0 0 0 0 0 0 0 0 0 0 0 0 0 0 0 0 0 0 0 0 0 0 0
0 0 0 0 0 0 0 0 0 0 0 0 0 0 0 0 0 0 0 0 0 0 0 0 0 0 0 0 0 0 0 0 0 0 0 0 0 0 0 0 0 0 0
0 0 0 0 0 0 0 0 0 0 0 0 0 0 0 0 0 0 0 0 0 0 0 0 0 0 0 0 0 0 0 0 0 0 0 0 0 0 0 0 0 0 0
0 0 0 0 0 0 0 0 0 0 0 0 0 0 0 0 0 0 0 0 0 0 0 0 0 0 0 0 0 0 0 0 0 0 0 0 0 0 0 0 0 0 0
0 0 0 0 0 0 0 0 0 0 0 0 0 0 0 0 0 0 0 0 0 0 0 0 0 0 0 0 0 0 0 0 0 0 0 0 0 0 0 0 0 0 0
0 0 0 0 0 0 0 0 0 0 0 0 0 0 0 0 0 0 0 0 0 0 0 0 0 0 0 0 0 0 0 0 0 0 0 0 0 0 0 0 0 0 0
0 0 0 0 0 0 0 0 0 0 0 0 0 0 0 0 0 0 0 0 0 0 0 0 0 0 0 0 0 0 0 0 0 0 0 0 0 0 0 0 0 0 0
0 0 0 0 0 0 0 0 0 0 0 0 0 0 0 0 0 0 0 0 0 0 0 0 0 0 0 0 0 0 0 0 0 0 0 0 0 0 0 0 0 0 0
0 0 0 0 0 0 0 0 0 0 0 0 0 0 0 0 0 0 0 0 0 0 0 0 0 0 0 0 0 0 0 0 0 0 0 0 0 0 0 0 0 0 0
0 0 0 0 0 0 0 0 0 0 0 0 0 0 0 0 0 0 0 0 0 0 0 0 0 0 0 0 0 0 0 0 0 0 0 0 0 0 0 0 0 0 0
0 0 0 0 0 0 0 0 0 0 0 0 0 0 0 0 0 0 0 0 0 0 0 0 0 0 0 0 0 0 0 0 0 0 0 0 0 0 0 0 0 0 0
0 0 0 0 0 0 0 0 0 0 0 0 0 0 0 0 0 0 0 0 0 0 0 0 0 0 0 0 0 0 0 0 0 0 0 0 0 0 0 0 0 0 0
0 0 0 0 0 0 0 0 0 0 0 0 0 0 0 0 0 0 0 0 0 0 0 0 0 0 0 0 0 0 0 0 0 0 0 0 0 0 0 0 0 0 0
0 0 0 0 0 0 0 0 0 0 0 0 0 0 0 0 0 0 0 0 0 0 0 0 0 0 0 0 0 0 0 0 0 0 0 0 0 0 0 0 0 0 0
Height
5857 5858 5860 5862 5863 5864 5865 5866 5867 5868 5868 5869 5869 5869 5870 5870 5870 5870 5870 5870 5870 5870 5870 5870 5869 5869 5868 5868 5867 5867 5867 5866 5865 5865 5864 5863 5862 5862 5861 5860 5859 5858 5856
5855 5857 5858 5860 5862 5863 5864 5865 5866 5867 5868 5868 5869 5869 5869 5869 5870 5870 5870 5870 5870 5870 5870 5870 5869 5869 5868 5868 5867 5867 5866 5866 5865 5864 5863 5862 5861 5860 5859 5858 5857 5856 5854
5853 5855 5857 5858 5860 5861 5862 5864 5865 5866 5867 5867 5868 5868 5868 5868 5869 5869 5869 5869 5870 5869 5869 5869 5869 5868 5868 5867 5866 5866 5865 5865 5864 5863 5862 5861 5860 5859 5858 5856 5855 5853 5852
5851 5853 5854 5856 5858 5859 5861 5862 5863 5864 5865 5866 5866 5867 5867 5867 5867 5868 5868 5868 5869 5869 5868 5868 5868 5867 5867 5866 5865 5865 5864 5863 5862 5861 5861 5860 5858 5857 5856 5854 5852 5851 5849
5848 5850 5852 5853 5855 5857 5859 5860 5861 5862 5863 5864 5864 5865 5866 5866 5866 5866 5867 5867 5867 5867 5867 5867 5866 5866 5865 5865 5864 5863 5862 5861 5860 5859 5858 5857 5856 5855 5853 5852 5850 5848 5846
5845 5847 5849 5850 5853 5854 5856 5857 5859 5860 5861 5862 5862 5863 5863 5864 5864 5865 5865 5865 5865 5865 5865 5865 5864 5864 5863 5863 5862 5861 5860 5859 5858 5857 5856 5855 5854 5852 5851 5849 5847 5845 5843
5842 5844 5846 5848 5849 5851 5853 5855 5856 5857 5858 5859 5860 5860 5861 5861 5862 5862 5863 5863 5863 5863 5863 5863 5862 5862 5861 5860 5860 5859 5858 5857 5856 5855 5853 5852 5850 5849 5847 5845 5843 5840 5838
5839 5841 5843 5844 5846 5848 5850 5851 5852 5854 5855 5856 5857 5858 5858 5859 5859 5859 5860 5860 5860 5860 5860 5860 5860 5859 5859 5858 5857 5856 5855 5854 5852 5851 5850 5848 5846 5844 5842 5840 5838 5835 5832
5836 5837 5839 5841 5843 5845 5846 5848 5849 5850 5851 5852 5853 5854 5855 5855 5856 5856 5857 5857 5857 5857 5857 5857 5856 5856 5855 5855 5854 5853 5851 5850 5848 5847 5845 5843 5841 5839 5837 5835 5833 5830 5827
5832 5833 5835 5837 5839 5841 5842 5844 5845 5846 5847 5848 5850 5850 5851 5852 5852 5853 5853 5853 5854 5854 5853 5853 5853 5852 5851 5850 5850 5848 5847 5846 5844 5842 5841 5839 5836 5834 5832 5829 5827 5824 5821
5827 5829 5831 5833 5835 5836 5838 5839 5841 5842 5843 5844 5846 5846 5847 5848 5848 5848 5849 5849 5849 5849 5849 5849 5848 5848 5847 5846 5845 5844 5843 5841 5839 5838 5836 5833 5831 5828 5826 5823 5820 5817 5814
5823 5825 5826 5828 5830 5832 5833 5835 5836 5838 5839 5840 5841 5842 5842 5843 5844 5844 5845 5845 5845 5845 5845 5844 5843 5843 5842 5841 5840 5839 5837 5836 5834 5832 5830 5827 5825 5822 5819 5816 5813 5810 5806
5819 5820 5822 5824 5825 5827 5829 5830 5832 5833 5834 5835 5836 5837 5838 5838 5839 5839 5840 5840 5840 5840 5839 5839 5838 5837 5837 5836 5835 5833 5831 5830 5827 5825 5823 5821 5818 5815 5812 5809 5805 5802 5798
5814 5816 5818 5819 5821 5822 5824 5826 5827 5828 5829 5830 5831 5832 5833 5833 5834 5834 5834 5834 5834 5834 5834 5833 5832 5832 5831 5829 5828 5827 5825 5823 5821 5819 5816 5813 5811 5808 5804 5801 5798 5794 5789
5810 5812 5813 5815 5816 5818 5819 5821 5822 5823 5824 5825 5826 5827 5827 5828 5828 5828 5828 5829 5828 5828 5828 5827 5826 5825 5824 5822 5821 5819 5817 5815 5813 5811 5808 5805 5802 5799 5796 5792 5789 5785 5780
5805 5807 5808 5810 5811 5813 5814 5815 5817 5818 5819 5820 5820 5821 5822 5822 5822 5822 5822 5822 5822 5822 5821 5820 5819 5818 5817 5815 5813 5812 5810 5807 5805 5803 5800 5797 5793 5790 5786 5783 5779 5775 5770
5800 5801 5803 5804 5806 5807 5808 5810 5811 5812 5813 5814 5814 5815 5815 5815 5815 5815 5815 5815 5815 5814 5813 5812 5811 5810 5809 5807 5805 5803 5801 5799 5796 5793 5790 5787 5784 5780 5776 5772 5768 5764 5759
5795 5796 5797 5799 5800 5802 5803 5804 5805 5806 5807 5807 5808 5808 5809 5809 5809 5809 5808 5808 5807 5806 5805 5804 5803 5802 5800 5799 5797 5794 5792 5789 5786 5783 5780 5777 5773 5769 5766 5761 5757 5753 5748
5789 5790 5792 5793 5794 5796 5797 5798 5798 5799 5800 5801 5802 5802 5802 5802 5802 5802 5801 5800 5799 5798 5797 5796 5795 5793 5791 5789 5787 5785 5782 5779 5776 5773 5770 5766 5762 5758 5754 5750 5745 5741 5736
5783 5785 5786 5787 5788 5789 5790 5791 5792 5793 5794 5795 5795 5795 5795 5795 5795 5794 5793 5792 5791 5790 5789 5788 5786 5784 5782 5780 5778 5775 5772 5769 5766 5762 5759 5755 5751 5747 5742 5738 5733 5728 5723
5777 5779 5780 5781 5782 5783 5784 5785 5786 5786 5787 5788 5788 5788 5788 5787 5787 5786 5785 5784 5783 5781 5780 5778 5777 5775 5773 5770 5768 5765 5761 5758 5755 5751 5747 5743 5739 5734 5730 5725 5720 5715 5710
5771 5772 5774 5775 5776 5777 5778 5778 5779 5780 5780 5780 5780 5780 5780 5779 5778 5778 5776 5775 5774 5772 5770 5769 5767 5765 5762 5760 5757 5753 5750 5747 5743 5739 5735 5731 5726 5722 5717 5712 5707 5702 5696
5765 5766 5768 5769 5770 5770 5771 5772 5772 5772 5772 5772 5772 5772 5771 5771 5770 5769 5767 5766 5764 5762 5760 5758 5756 5754 5751 5748 5745 5742 5738 5735 5731 5727 5722 5718 5714 5709 5704 5699 5693 5688 5682
5759 5760 5761 5762 5763 5763 5764 5764 5765 5765 5765 5764 5764 5763 5762 5762 5761 5759 5758 5756 5754 5752 5750 5748 5745 5743 5740 5737 5733 5730 5726 5722 5718 5714 5709 5705 5700 5695 5690 5685 5679 5674 5668
5752 5753 5754 5755 5756 5756 5757 5757 5757 5757 5756 5756 5755 5754 5753 5752 5751 5749 5748 5746 5744 5742 5739 5737 5734 5731 5728 5725 5721 5717 5713 5709 5705 5701 5696 5692 5687 5682 5676 5671 5665 5659 5653
5745 5746 5747 5747 5748 5748 5748 5748 5748 5748 5747 5746 5746 5744 5743 5742 5740 5739 5737 5735 5733 5731 5728 5725 5722 5719 5716 5712 5709 5705 5700 5696 5692 5687 5682 5678 5673 5667 5662 5656 5651 5645 5639
Wind_Speed
11 11 11 10 9 9 8 7 7 7 6 5 4 3 3 2 2 2 2 2 2 1 1 1 2 3 3 4 4 3 4 4 3 3 5 5 6 6 7 7 8 8 9
12 12 12 12 10 10 9 9 8 8 7 6 5 5 4 3 3 3 3 3 3 3 3 3 3 3 4 4 4 5 5 4 5 4 5 6 6 7 8 9 10 10 11
13 13 13 13 12 11 11 10 10 9 8 7 7 7 6 5 5 4 4 4 4 4 4 4 5 5 5 5 6 6 6 6 7 8 7 8 8 9 9 10 11 12 13
14 13 14 14 14 13 12 11 11 11 9 9 8 8 7 6 6 6 5 5 6 6 6 6 6 7 7 7 7 8 8 8 9 9 10 10 10 11 11 12 13 13 14
15 14 14 14 15 14 13 12 12 12 11 10 9 9 9 8 8 7 7 7 7 7 7 7 8 8 9 9 9 9 9 9 10 10 11 11 11 11 12 13 14 15 16
15 15 15 15 16 16 15 14 13 13 13 12 11 11 10 10 10 9 9 9 9 8 8 9 9 9 10 10 10 10 11 11 11 12 12 13 13 14 15 16 16 17 18
16 16 16 16 16 16 16 15 15 14 14 13 13 13 12 11 11 11 11 11 10 10 10 10 11 11 11 11 12 12 13 13 13 13 14 15 16 16 17 18 18 19 20
16 16 17 17 17 17 16 16 15 15 15 15 15 14 14 13 13 13 13 13 12 12 12 12 13 13 14 14 14 15 15 15 15 16 17 17 18 18 19 20 20 21 22
17 16 17 18 18 17 17 17 17 16 16 15 15 15 15 15 15 15 15 14 14 15 15 15 16 16 16 16 16 17 17 17 17 18 19 19 20 21 21 22 22 23 24
18 18 18 18 19 19 19 18 18 17 17 17 17 17 17 17 17 17 17 17 17 17 17 17 17 17 17 17 17 17 18 19 19 20 20 21 22 22 23 24 24 25 26
17 18 18 19 19 20 19 19 19 18 18 18 18 18 17 17 17 17 17 18 18 18 18 18 19 19 19 19 19 19 20 21 21 22 22 23 24 25 25 26 27 28 29
17 18 18 18 18 19 19 19 19 20 20 19 19 19 18 19 19 19 19 19 19 19 20 20 20 20 20 21 21 22 22 23 23 23 24 25 26 27 27 28 29 30 31
17 18 18 18 18 18 18 18 18 19 19 20 19 19 20 20 20 20 20 20 21 21 21 21 22 21 21 22 23 23 24 24 25 25 26 27 28 28 29 29 31 32 33
18 18 18 17 18 19 18 19 19 19 20 20 20 20 20 21 21 21 21 21 22 22 22 22 22 23 23 24 24 25 25 26 27 28 28 29 30 31 31 32 34 35 36
19 18 18 18 19 20 19 20 20 20 20 21 21 22 22 22 22 22 22 23 23 23 24 24 24 25 26 26 26 27 27 28 29 30 30 31 32 33 34 35 36 38 38
19 19 19 19 20 21 21 21 21 21 21 21 22 22 22 23 23 24 24 24 25 26 26 26 27 27 27 28 28 29 29 30 31 32 32 33 34 36 37 38 39 39 40
20 20 21 20 20 21 22 22 22 22 22 22 22 22 23 24 24 25 25 25 26 27 28 28 29 29 30 30 30 31 32 33 33 34 35 36 37 38 38 39 39 40 41
20 21 21 22 22 22 22 23 23 24 24 23 24 24 24 25 25 25 26 26 27 28 29 30 30 31 31 31 32 33 34 35 36 36 37 37 38 39 39 40 41 42 43
20 21 21 22 22 22 23 23 23 24 24 24 24 25 25 25 26 26 27 27 28 29 29 30 30 30 31 32 34 35 36 36 36 37 38 38 39 40 41 42 43 44 45
21 21 22 22 22 22 23 23 23 23 23 24 25 25 25 26 26 27 27 27 28 29 30 30 31 32 33 34 35 36 36 37 38 39 40 41 41 42 43 44 45 46 47
21 21 22 23 23 23 23 23 23 23 24 24 25 26 26 27 27 27 28 28 29 30 31 31 32 33 34 35 36 37 38 39 40 41 42 42 43 44 45 46 47 47 48
21 21 21 22 24 24 24 24 24 24 25 25 26 27 28 28 28 29 30 30 32 32 33 34 34 35 36 37 38 39 40 41 42 42 43 43 44 45 46 47 48 48 49
21 21 21 22 22 23 23 24 24 24 25 26 27 28 29 29 30 31 31 32 33 33 34 35 35 36 37 39 40 41 41 42 42 43 43 44 45 47 47 48 49 49 50
22 22 22 22 22 23 23 24 25 26 27 28 28 29 30 31 32 33 33 34 34 35 35 36 37 38 39 40 41 42 42 42 43 44 45 46 47 48 49 49 50 51 52
22 22 23 23 24 24 25 25 26 28 28 29 29 30 31 32 33 33 34 35 35 36 37 38 38 39 40 41 42 42 43 43 44 46 46 47 48 49 50 50 51 52 53
24 24 25 25 25 26 27 27 27 28 28 28 29 31 32 32 33 33 34 35 35 36 37 38 38 40 41 42 43 44 45 45 46 47 48 48 49 50 50 51 51 52 53
Wind_Direction
216 216 213 211 210 210 208 209 212 211 207 205 209 209 208 212 212 209 213 220 215 229 276 313 329 336 335 337 333 325 324 322 326 328 328 325 324 323 320 321 319 314 310
219 218 217 216 215 215 213 215 219 219 217 219 222 222 225 236 235 234 236 243 251 262 275 295 308 316 319 320 323 324 321 317 318 317 314 314 314 316 319 318 314 313 312
221 220 219 221 221 220 218 222 222 222 224 229 233 234 239 245 242 242 244 248 257 268 275 283 292 301 307 310 310 312 312 311 310 311 311 312 311 310 312 314 315 314 312
225 225 225 227 226 225 224 226 226 227 230 235 238 240 243 245 246 248 252 255 261 269 274 278 283 291 296 299 300 301 302 303 304 306 308 308 309 311 312 313 313 313 314
226 228 228 230 230 229 229 228 230 232 235 237 241 247 248 249 249 252 256 262 267 272 276 279 283 288 293 297 299 300 301 302 303 305 307 308 309 310 312 313 313 314 314
227 229 231 231 232 232 232 231 234 237 240 242 245 248 248 250 252 256 260 264 268 271 276 280 283 286 290 293 296 297 298 299 301 302 304 306 306 307 308 309 309 308 308
230 233 233 229 229 231 233 235 238 241 245 249 251 247 250 254 256 258 262 261 264 269 274 278 281 285 288 291 293 295 295 295 295 297 299 301 302 302 304 306 307 308 308
233 237 234 229 229 232 236 239 241 242 245 250 251 249 250 254 257 257 260 261 265 271 275 278 282 286 289 292 292 293 293 294 295 296 298 300 301 302 303 305 307 308 308
236 238 235 233 233 234 237 240 243 244 246 248 249 252 253 254 256 257 258 261 266 271 274 278 282 284 288 289 291 293 294 294 297 299 301 302 303 303 303 305 306 307 308
237 240 240 239 238 239 241 245 245 245 247 249 252 254 255 256 258 259 261 265 269 272 276 279 281 283 285 286 289 292 294 295 297 299 300 301 302 303 304 305 305 306 307
239 239 240 239 239 240 244 246 246 246 247 250 254 255 257 259 261 263 266 269 273 275 277 280 282 283 284 286 288 291 294 296 297 298 299 300 301 302 303 304 305 305 306
243 242 242 240 240 242 244 244 245 247 249 251 254 256 258 260 261 264 267 270 273 275 278 281 283 286 285 287 289 290 293 295 296 297 298 299 300 301 302 303 304 305 305
244 244 245 246 246 246 246 246 247 249 250 252 255 257 259 261 262 264 266 270 273 276 278 282 285 285 286 288 289 290 293 295 296 297 297 297 298 300 301 303 304 305 305
244 244 244 246 247 248 247 248 249 253 254 254 256 258 261 263 264 265 267 269 273 276 279 282 283 284 286 287 288 290 292 294 295 296 296 296 298 299 300 302 304 305 305
245 246 246 248 249 249 250 251 252 254 256 257 258 260 263 265 265 267 269 272 275 278 280 281 282 284 286 287 288 288 291 293 294 295 295 296 297 299 300 301 303 304 304
246 246 247 250 251 251 252 254 255 257 258 260 261 262 264 266 268 271 274 276 276 277 279 280 281 283 285 287 288 289 290 293 294 295 296 297 298 298 299 300 301 303 303
246 246 247 250 252 252 253 254 256 258 259 261 262 265 266 269 272 273 274 275 275 277 278 279 280 282 284 285 287 288 290 292 293 294 296 297 298 299 300 300 301 302 303
250 249 249 251 251 252 255 256 258 258 261 261 264 266 269 270 273 274 275 276 276 277 278 278 279 282 283 285 287 289 290 292 293 295 296 297 298 299 300 300 301 302 302
253 252 251 253 254 255 258 260 260 259 260 263 266 268 270 271 274 276 276 276 277 278 279 280 281 283 285 286 288 289 291 292 294 296 297 297 298 299 299 300 301 301 302
253 253 253 253 256 258 260 260 261 261 262 265 267 270 272 273 275 276 277 278 279 279 280 281 283 285 285 288 290 291 291 293 294 296 297 297 298 299 299 300 301 301 302
253 253 254 255 256 259 260 260 261 263 264 267 270 272 273 274 276 277 278 280 281 281 282 283 284 286 288 289 290 291 292 293 294 296 296 297 298 298 299 300 301 301 302
256 256 258 259 259 260 260 262 265 267 268 268 270 272 273 275 278 280 281 282 283 283 283 284 286 287 289 290 290 291 292 293 295 295 296 297 298 298 299 300 301 302 302
257 258 259 260 261 261 262 263 266 269 270 270 271 273 276 278 279 280 281 283 284 285 285 286 287 288 290 291 292 292 293 294 294 294 295 297 298 299 300 300 301 302 302
257 257 258 260 262 263 264 265 268 271 272 272 273 274 276 278 280 282 283 284 285 286 286 287 289 289 290 291 292 293 293 294 294 295 296 298 299 300 300 301 301 302 303
260 260 262 263 264 266 268 269 270 273 275 275 275 276 277 279 281 283 285 286 287 288 288 289 289 290 291 291 292 293 295 295 296 297 297 298 299 300 300 301 302 303 303
261 262 264 266 267 268 270 272 273 275 276 277 278 278 280 281 283 285 286 288 289 290 290 290 290 291 292 293 293 294 294 295 296 297 298 299 300 300 301 302 303 304 304